User: anonymous   Login
Location: Dunedin
(45.8670°S, 170.5000°E)
Time: 14:54:07
(UTC+13:00)
Language:

BREEZE-M DEB (TANK) - Orbit

View from above orbital plane
View from above orbital plane
View from above satellite
View from above satellite

Ground track
Ground track

The orbit data is extracted from the following two-line orbital elements,

1 35495U 09034C   19081.24890922 +.00001149 +00000-0 +19800-3 0  9993
2 35495 049.5778 154.5271 5028482 324.5179 010.6560 05.56488302193869
Epoch (UTC): 22 March 2019 05:58:25
Eccentricity: 0.5028482
inclination: 49.5778°
perigee height: 309 km
apogee height: 13837 km
right ascension of ascending node: 154.5271°
argument of perigee: 324.5179°
revolutions per day: 5.56488302
mean anomaly at epoch: 10.6560°
orbit number at epoch: 19386

The dashed part of the orbit path shows where the satellite is in the earth's shadow,  

DLR